CAPE
639 479 265 323 577 407 429 750 1799 1490 2032 2117 2061 2273 1956 1406 1172 1087 457 3 0 0 0 0 0 0 0 0 0 0 0 0 0 0 0 0 0 0 0 0 0 0 0
572 543 685 857 805 889 553 599 1208 2052 1618 1612 1987 2211 1789 1370 1080 977 578 0 0 0 0 0 0 0 0 0 0 0 0 0 0 0 0 0 0 0 0 0 0 0 0
783 854 1200 1458 1386 1136 988 793 787 1483 1677 1803 2174 2259 1844 1386 1062 872 575 0 0 0 0 0 0 0 0 0 0 0 0 0 0 0 0 0 0 0 0 0 0 0 0
1084 1202 1429 1456 1424 1309 1141 1143 1269 1640 1721 2078 2278 2353 1841 1382 1028 799 111 0 0 0 0 0 0 0 0 0 0 0 0 0 0 0 0 0 0 0 0 0 0 0 0
1249 1301 1469 1418 1517 1414 1268 1404 1621 1706 2076 2208 2326 2403 1732 1317 1025 549 36 0 0 0 0 0 0 0 0 0 0 0 0 0 0 0 0 0 0 0 0 0 0 0 0
1308 1322 1346 1684 1539 1512 1474 1388 1890 1968 2084 2382 2305 2281 1686 1301 876 325 12 0 0 0 0 0 0 0 0 0 0 0 0 0 0 0 0 0 0 0 0 0 0 0 0
1321 1398 1446 1555 1726 1574 1528 1656 1765 2043 2184 2305 2374 2147 1597 1137 707 163 2 0 0 0 0 0 0 0 0 0 0 0 0 0 0 0 0 0 0 0 0 0 0 0 0
1296 1422 1535 1607 1598 1754 1741 1696 1788 1930 2179 2363 2259 1952 1406 668 231 9 0 0 0 0 0 0 0 0 0 0 0 0 0 0 0 0 0 0 0 0 0 0 0 0 0
1133 1349 1494 1636 1686 1724 1754 1734 1975 2021 2290 2315 2238 1683 1251 602 23 0 0 0 0 0 0 0 0 0 0 0 0 0 0 0 0 0 0 0 0 0 0 0 0 0 0
1051 1216 1428 1596 1707 1794 1786 1893 1992 2311 2571 2425 1888 1480 1053 522 0 0 0 0 0 0 0 0 0 0 0 0 0 0 0 0 0 0 0 0 0 0 0 0 0 0 0
1136 1134 1586 1716 1756 2050 2159 2238 2162 2552 2901 2389 1716 1208 714 162 0 0 0 0 0 0 0 0 0 0 0 0 0 0 0 0 0 0 0 0 0 0 0 0 0 0 0
1096 1391 1404 1899 2137 2347 2421 2556 2526 2646 2899 2040 1265 980 324 6 0 0 0 0 0 0 0 0 0 0 0 0 0 0 0 0 0 0 0 0 0 0 0 0 0 0 0
1323 1212 1502 1760 2212 2472 2678 2720 2778 2878 2547 1614 940 976 460 0 0 0 0 0 0 0 0 0 0 0 0 0 0 0 0 0 0 0 0 0 0 0 0 0 0 0 0
1526 1651 1810 2133 2408 2595 2843 2867 2929 2595 2244 1648 786 882 359 1 0 0 0 0 0 0 0 0 0 0 0 0 0 0 0 0 0 0 0 0 0 0 0 0 0 0 0
1769 2047 2317 2441 2544 2835 2947 3111 3127 2435 1983 1508 780 800 305 1 0 0 0 0 0 0 0 0 0 0 0 0 0 0 0 0 0 0 0 0 0 0 0 0 0 0 0
2587 2527 2560 2810 2957 3091 3104 2728 1876 2417 1589 769 548 361 23 0 0 0 0 0 0 0 0 0 0 0 0 0 0 0 0 0 0 0 0 0 0 0 0 0 0 0 0
2855 3135 3236 3165 3167 3327 3296 2975 2825 1051 638 363 411 44 21 0 0 0 0 0 0 0 0 0 0 0 0 0 0 0 0 0 0 0 0 0 0 0 0 0 0 0 0
2867 2867 3208 3291 3328 3548 3300 2630 2301 1651 1116 353 0 0 0 0 0 0 0 0 0 0 0 0 0 0 0 0 0 0 0 0 0 0 0 0 0 0 0 0 0 0 0
3276 3225 3358 3415 3361 3301 3007 2142 1720 953 910 118 0 0 0 0 0 0 0 0 0 0 0 0 0 0 0 0 0 0 0 0 0 0 0 0 0 0 0 0 0 0 0
3060 3256 3470 3335 3163 2713 2375 1942 1525 607 539 205 63 0 0 0 0 0 0 0 0 0 0 0 0 0 0 0 0 0 0 0 0 0 0 0 0 0 0 0 0 0 0
3470 3494 3371 3126 2573 2345 2077 1536 852 553 650 5 0 0 0 0 0 0 0 0 0 0 0 0 0 0 0 0 0 0 0 0 0 0 0 0 0 0 0 0 0 0 0
3119 2991 2831 2818 2067 1999 1949 1079 422 303 117 0 0 0 0 0 0 0 0 0 0 0 0 0 0 0 0 0 0 0 0 0 0 0 0 0 0 0 0 0 0 0 0
2241 2361 2553 2452 1850 1543 1353 1036 513 192 12 0 0 0 0 0 0 0 0 0 0 0 0 0 0 0 0 0 0 0 0 0 0 0 0 0 0 0 0 0 0 0 0
1338 1556 1700 1782 1471 1268 1047 939 291 124 41 0 0 0 0 0 0 0 0 0 0 0 0 0 0 0 0 0 0 0 0 0 0 0 0 0 0 0 0 0 0 0 0
822 1189 1400 1490 1158 1105 879 691 430 224 52 0 0 0 0 0 0 0 0 0 0 0 0 0 0 0 0 0 0 0 0 0 0 0 0 0 0 0 0 0 0 0 0
221 572 775 1089 1077 892 739 553 320 123 2 0 0 0 0 0 0 0 0 0 0 0 0 0 0 0 0 0 0 0 0 0 0 0 0 0 0 0 0 0 0 0 0
CIN
-294 -318 -388 -361 -324 -359 -362 -304 -176 -195 -140 -137 -137 -126 -151 -211 -231 -227 -359 -159 0 0 0 0 0 0 0 0 0 0 0 0 0 0 0 0 0 0 0 0 0 0 0
-350 -332 -298 -288 -317 -327 -383 -355 -272 -183 -220 -209 -156 -148 -192 -228 -264 -252 -301 0 0 0 0 0 0 0 0 0 0 0 0 0 0 0 0 0 0 0 0 0 0 0 0
-313 -273 -239 -228 -267 -334 -348 -353 -376 -288 -262 -232 -182 -171 -198 -253 -287 -293 -319 0 0 0 0 0 0 0 0 0 0 0 0 0 0 0 0 0 0 0 0 0 0 0 0
-257 -235 -240 -268 -302 -334 -336 -352 -351 -311 -299 -246 -207 -176 -226 -270 -315 -330 -513 0 0 0 0 0 0 0 0 0 0 0 0 0 0 0 0 0 0 0 0 0 0 0 0
-248 -250 -272 -303 -302 -324 -333 -348 -330 -330 -288 -239 -195 -177 -245 -302 -336 -411 -584 0 0 0 0 0 0 0 0 0 0 0 0 0 0 0 0 0 0 0 0 0 0 0 0
-266 -280 -279 -266 -311 -336 -332 -360 -313 -305 -297 -230 -233 -224 -291 -330 -380 -486 -684 0 0 0 0 0 0 0 0 0 0 0 0 0 0 0 0 0 0 0 0 0 0 0 0
-282 -282 -285 -297 -301 -344 -360 -342 -336 -312 -306 -257 -249 -267 -329 -390 -440 -584 -97 0 0 0 0 0 0 0 0 0 0 0 0 0 0 0 0 0 0 0 0 0 0 0 0
-280 -288 -295 -309 -327 -344 -355 -356 -347 -337 -308 -279 -291 -321 -364 -499 -612 -345 0 0 0 0 0 0 0 0 0 0 0 0 0 0 0 0 0 0 0 0 0 0 0 0 0
-319 -306 -315 -333 -346 -374 -377 -389 -366 -342 -310 -305 -302 -376 -414 -535 -599 0 0 0 0 0 0 0 0 0 0 0 0 0 0 0 0 0 0 0 0 0 0 0 0 0 0
-354 -336 -348 -349 -376 -415 -409 -408 -393 -327 -286 -280 -360 -436 -509 -598 0 0 0 0 0 0 0 0 0 0 0 0 0 0 0 0 0 0 0 0 0 0 0 0 0 0 0
-352 -372 -352 -371 -415 -422 -402 -380 -365 -291 -216 -291 -414 -508 -616 -823 0 0 0 0 0 0 0 0 0 0 0 0 0 0 0 0 0 0 0 0 0 0 0 0 0 0 0
-401 -374 -409 -406 -411 -376 -362 -334 -316 -271 -225 -357 -512 -563 -773 -1046 0 0 0 0 0 0 0 0 0 0 0 0 0 0 0 0 0 0 0 0 0 0 0 0 0 0 0
-402 -415 -414 -434 -415 -379 -359 -318 -278 -260 -298 -446 -594 -597 -779 0 0 0 0 0 0 0 0 0 0 0 0 0 0 0 0 0 0 0 0 0 0 0 0 0 0 0 0
-355 -384 -416 -416 -398 -360 -345 -326 -293 -346 -390 -486 -698 -657 -799 0 0 0 0 0 0 0 0 0 0 0 0 0 0 0 0 0 0 0 0 0 0 0 0 0 0 0 0
-349 -363 -371 -383 -377 -356 -346 -314 -311 -462 -533 -598 -751 -644 -805 0 0 0 0 0 0 0 0 0 0 0 0 0 0 0 0 0 0 0 0 0 0 0 0 0 0 0 0
-275 -305 -332 -326 -336 -326 -330 -406 -583 -426 -600 -810 -798 -831 -1130 0 0 0 0 0 0 0 0 0 0 0 0 0 0 0 0 0 0 0 0 0 0 0 0 0 0 0 0
-213 -236 -267 -287 -291 -298 -292 -354 -350 -765 -865 -927 -803 -1090 -1061 0 0 0 0 0 0 0 0 0 0 0 0 0 0 0 0 0 0 0 0 0 0 0 0 0 0 0 0
-209 -241 -245 -272 -255 -243 -257 -398 -396 -535 -658 -873 0 0 0 0 0 0 0 0 0 0 0 0 0 0 0 0 0 0 0 0 0 0 0 0 0 0 0 0 0 0 0
-197 -209 -209 -203 -212 -218 -271 -436 -481 -695 -658 -978 0 0 0 0 0 0 0 0 0 0 0 0 0 0 0 0 0 0 0 0 0 0 0 0 0 0 0 0 0 0 0
-192 -184 -156 -148 -161 -244 -324 -402 -462 -763 -748 -873 -931 0 0 0 0 0 0 0 0 0 0 0 0 0 0 0 0 0 0 0 0 0 0 0 0 0 0 0 0 0 0
-113 -98 -95 -97 -162 -228 -278 -386 -585 -703 -598 -1162 0 0 0 0 0 0 0 0 0 0 0 0 0 0 0 0 0 0 0 0 0 0 0 0 0 0 0 0 0 0 0
-100 -106 -103 -69 -174 -193 -192 -370 -592 -649 -795 0 0 0 0 0 0 0 0 0 0 0 0 0 0 0 0 0 0 0 0 0 0 0 0 0 0 0 0 0 0 0 0
-125 -110 -86 -79 -153 -222 -239 -296 -451 -588 -916 0 0 0 0 0 0 0 0 0 0 0 0 0 0 0 0 0 0 0 0 0 0 0 0 0 0 0 0 0 0 0 0
-229 -195 -150 -148 -196 -202 -255 -284 -456 -574 -696 0 0 0 0 0 0 0 0 0 0 0 0 0 0 0 0 0 0 0 0 0 0 0 0 0 0 0 0 0 0 0 0
-304 -213 -151 -123 -192 -193 -232 -257 -329 -433 -587 0 0 0 0 0 0 0 0 0 0 0 0 0 0 0 0 0 0 0 0 0 0 0 0 0 0 0 0 0 0 0 0
-403 -293 -245 -126 -122 -166 -189 -229 -292 -432 -153 0 0 0 0 0 0 0 0 0 0 0 0 0 0 0 0 0 0 0 0 0 0 0 0 0 0 0 0 0 0 0 0
Wind_Speed
31 32 33 32 31 30 28 25 21 18 14 12 10 10 11 13 15 15 17 17 18 18 18 20 22 23 24 22 25 25 26 24 23 21 21 21 21 26 23 26 27 28 28
29 29 31 30 29 29 29 27 23 19 16 12 8 8 9 11 13 13 14 14 15 16 16 19 21 22 22 23 24 25 25 24 23 23 22 23 24 27 27 28 30 29 28
26 28 30 29 29 28 29 26 24 21 17 12 8 7 8 10 11 12 12 14 15 15 16 18 18 20 21 22 23 25 24 23 22 23 23 22 21 27 29 26 28 30 27
25 27 28 30 29 28 28 27 26 22 18 14 10 7 6 8 9 10 11 13 14 15 16 17 18 19 19 20 23 24 24 24 23 23 24 24 23 24 26 27 29 28 27
26 26 27 27 26 26 28 29 27 23 19 12 9 7 6 7 8 8 9 10 13 13 15 16 16 17 18 20 22 23 23 22 23 23 24 23 24 25 28 25 26 28 26
26 26 25 24 25 27 29 30 26 25 20 12 12 8 5 5 6 6 7 8 10 12 12 14 15 15 16 17 19 20 18 20 21 22 22 22 22 22 23 24 27 29 29
24 24 25 24 26 28 28 28 27 26 21 15 12 8 5 3 4 3 4 5 8 10 10 12 13 15 17 19 20 21 20 21 17 19 21 19 19 20 22 25 25 26 25
21 24 23 24 28 27 27 26 27 26 22 18 14 10 7 2 2 2 3 4 5 8 9 11 14 15 17 19 21 22 22 21 21 22 18 16 16 17 18 20 21 22 23
23 24 25 26 28 27 26 27 27 25 22 19 13 8 7 5 2 2 2 2 3 6 9 10 11 14 16 19 21 22 22 21 21 21 20 19 17 18 20 22 25 26 27
24 26 25 29 32 27 27 28 25 23 18 12 11 10 8 5 4 4 3 1 1 4 7 9 10 11 13 17 20 22 24 22 23 24 25 25 25 24 24 23 24 24 23
21 21 25 32 31 27 26 25 22 19 12 10 10 7 6 5 4 5 7 5 3 1 4 6 7 9 11 15 18 19 21 21 23 24 24 24 25 26 25 25 22 22 24
25 28 30 27 25 22 24 20 18 15 13 12 10 8 8 5 4 5 8 6 0 2 3 4 4 6 10 14 16 18 19 20 22 23 26 27 27 26 25 27 28 27 26
23 30 27 22 21 21 20 19 17 16 15 13 12 11 10 7 7 5 9 8 1 3 6 4 3 5 10 13 15 16 18 20 22 24 26 26 26 25 26 26 28 28 27
18 22 21 20 19 18 17 19 19 18 18 16 15 13 12 13 6 4 6 5 4 5 4 4 4 6 10 13 15 16 16 17 19 23 26 26 25 27 26 26 29 28 30
15 13 15 17 20 20 21 20 23 22 21 18 16 14 12 10 9 8 6 9 5 1 2 4 5 8 11 12 15 15 16 17 19 22 24 26 26 26 25 26 27 26 32
14 14 15 16 18 19 19 20 20 19 19 17 14 14 13 11 8 6 7 8 6 3 1 3 4 6 9 11 14 16 18 18 20 22 23 24 25 26 25 26 28 30 34
19 18 18 17 17 20 21 21 22 23 17 16 15 13 12 11 7 5 4 8 8 4 4 3 3 5 8 10 12 16 18 18 21 22 23 23 25 24 26 26 28 30 34
22 22 22 22 21 20 20 22 23 21 19 20 16 14 11 9 6 4 2 3 6 4 4 4 2 4 7 9 12 15 17 19 21 23 23 24 25 24 25 26 29 30 35
29 28 26 27 25 23 22 21 21 22 21 21 18 17 14 11 9 8 7 6 6 4 3 3 2 6 5 8 12 14 16 18 18 21 23 25 24 24 26 26 28 29 34
28 29 28 26 26 25 24 23 23 22 22 22 20 17 12 11 10 11 9 5 5 3 3 2 2 5 5 8 11 13 15 16 17 20 23 24 25 25 26 27 28 29 33
26 27 26 27 26 23 22 23 24 23 23 24 22 18 17 16 11 10 7 4 4 3 3 3 2 2 5 8 9 12 12 15 16 20 23 24 24 25 25 27 29 28 33
24 25 26 25 23 20 20 20 21 24 23 20 19 17 15 14 11 12 10 7 6 4 2 1 2 1 4 7 9 9 11 14 17 20 21 25 24 26 24 27 28 27 31
32 30 25 20 18 17 17 17 19 19 20 19 18 15 16 16 13 12 11 8 7 5 5 5 2 1 4 5 6 8 12 13 15 18 22 22 24 24 24 26 29 25 31
29 30 29 19 16 16 17 16 16 15 17 18 17 15 14 13 11 11 11 10 8 6 7 2 2 2 3 4 7 10 11 13 16 18 20 21 22 22 24 26 29 27 30
28 29 26 17 16 16 16 16 15 14 15 14 13 13 14 13 10 9 9 9 8 6 5 2 2 2 3 3 6 8 10 13 15 16 19 20 22 22 24 25 28 27 30
25 25 25 22 17 16 14 14 13 13 13 13 14 15 16 15 14 10 8 7 5 5 3 2 2 4 3 3 6 7 9 12 13 15 17 18 21 23 23 24 29 31 30
Wind_Direction
169 172 176 178 179 182 183 181 178 171 155 135 115 95 81 69 58 58 55 55 51 49 48 40 32 30 28 30 27 25 23 24 20 18 19 18 21 19 21 14 10 4 1
171 172 175 175 177 179 185 186 182 176 175 169 132 103 93 68 61 62 59 59 54 53 52 41 33 31 32 29 26 23 23 24 21 17 17 20 21 17 13 9 5 4 3
170 172 175 176 176 179 183 185 186 185 184 173 141 116 97 68 61 62 61 56 50 54 52 43 39 33 33 29 27 24 24 23 24 20 17 21 22 13 8 12 9 6 8
172 173 175 177 178 178 182 185 187 184 183 177 157 125 101 65 63 64 63 54 52 52 50 46 44 39 34 32 28 25 24 25 25 22 19 19 20 17 13 12 12 13 13
173 175 177 177 177 178 182 187 188 188 190 175 156 140 117 75 71 69 67 58 51 49 49 48 48 45 41 36 30 26 26 25 23 21 20 20 17 14 12 16 15 14 13
175 178 178 177 178 180 184 188 189 191 189 171 177 165 132 67 73 80 73 66 53 48 47 46 47 44 41 35 30 27 27 22 20 19 18 17 16 16 16 14 11 12 9
178 178 178 179 180 183 185 187 189 193 190 186 186 180 169 94 79 99 89 78 55 43 43 42 41 40 41 35 29 26 27 24 24 21 17 18 17 15 11 8 9 9 6
182 179 180 181 183 184 186 189 192 195 195 194 192 188 182 166 84 99 87 69 54 37 37 40 36 38 34 29 25 25 25 25 25 24 21 17 14 8 6 5 3 3 4
183 182 182 181 183 185 189 191 194 196 198 198 195 192 195 201 182 151 128 68 54 30 26 33 35 33 31 28 24 23 23 23 22 22 20 15 12 12 11 12 8 7 5
184 184 183 184 187 189 192 194 196 198 200 200 203 204 211 222 219 208 195 180 3 17 13 21 29 29 28 25 23 21 18 21 22 20 18 18 20 20 18 14 10 7 4
182 183 183 187 190 191 193 196 198 200 204 212 213 238 241 240 241 216 200 197 215 296 2 4 19 29 27 21 20 20 19 21 18 17 16 17 17 16 16 11 12 8 5
180 183 186 188 191 194 197 200 203 210 213 218 221 257 287 277 234 228 202 195 29 227 326 343 3 23 20 16 16 17 18 17 16 16 15 13 13 14 14 11 8 9 8
187 192 194 201 205 205 207 209 213 215 218 227 229 252 277 269 286 229 204 206 243 341 346 325 352 19 14 10 11 13 14 13 14 14 13 13 13 15 13 12 11 10 12
197 200 206 213 226 226 228 219 221 222 221 227 230 245 277 293 291 288 203 215 239 331 4 12 19 8 4 6 8 10 11 11 12 14 11 12 14 13 13 13 9 11 10
209 229 230 226 224 230 231 229 222 228 227 234 242 260 264 265 256 262 237 201 211 264 44 4 346 349 352 358 1 6 6 10 17 16 15 14 13 14 15 13 12 13 8
245 241 240 249 255 245 242 251 266 244 241 251 241 261 276 267 269 256 270 203 189 184 245 286 312 338 352 358 359 5 12 20 19 18 16 16 16 14 14 13 12 11 9
261 265 265 257 253 255 255 256 254 276 262 245 256 263 269 271 258 222 233 199 203 195 237 260 295 330 345 353 6 6 9 15 16 17 17 18 16 16 14 14 13 12 12
267 268 269 268 264 262 256 262 262 254 255 261 273 267 265 248 224 225 197 177 211 243 222 218 269 329 345 360 4 6 12 11 12 12 16 18 18 18 16 15 15 16 12
272 273 272 274 268 267 265 264 264 261 260 262 267 274 263 227 223 197 177 189 204 220 217 208 244 338 349 4 6 7 6 5 11 12 14 13 16 18 16 18 17 17 14
275 276 277 273 270 266 264 264 265 265 264 263 258 249 241 241 246 241 192 206 210 230 214 219 234 338 351 2 5 6 8 9 8 12 14 15 14 17 20 19 17 18 15
277 280 280 276 269 264 264 265 267 265 268 271 262 256 245 255 268 231 240 250 266 272 264 237 277 9 6 4 8 6 7 8 13 15 13 15 19 20 21 20 19 22 18
281 284 285 277 272 263 265 269 270 271 272 269 265 262 236 255 248 239 249 257 282 295 312 312 331 59 360 356 357 9 13 12 15 14 15 16 23 23 26 22 21 24 22
283 285 284 279 267 261 265 269 272 271 269 267 263 255 243 256 246 235 251 258 273 281 313 294 253 330 348 9 22 22 13 18 18 19 17 19 22 27 29 25 22 27 23
284 283 284 274 266 262 265 267 271 266 270 265 259 249 236 236 240 246 248 265 266 260 304 279 296 331 12 29 21 20 26 26 24 24 25 25 28 31 30 28 24 30 25
288 286 284 267 265 268 270 272 270 265 270 266 255 248 245 237 248 246 255 264 254 239 266 260 316 142 103 35 26 26 26 22 24 27 30 36 31 35 33 32 28 32 28
296 293 287 275 268 268 266 268 270 265 269 272 263 258 261 254 255 250 262 264 250 248 244 254 177 147 118 58 38 35 28 24 28 31 34 41 34 35 36 34 30 31 32